Location: Rainwater Observatory
(33.2833°N, 89.3833°W)
Time: 08:39:31
(UTC-06:00)

Daily predictions for brighter satellites

Satellite Brightness Start Highest point End
(mag) Time Altitude Azimuth Time Altitude Azimuth Time Altitude Azimuth
Cosmos 1634 Rocket 4.1 17:38:36 10° N 17:44:48 86° W 17:50:57 10° S
CZ-4 R/B 2.4 17:41:57 10° S 17:45:43 51° W 17:49:31 10° NNW
Cosmos 1125 Rocket 3.7 17:40:57 10° NNW 17:46:09 82° WSW 17:51:20 10° SSE
Cosmos 2151 3.7 17:47:54 10° SSW 17:52:02 58° W 17:56:11 10° N
YAOGAN 1 3.0 17:48:08 10° S 17:52:27 69° W 17:56:46 10° NNW
MONITOR-E 4.2 17:50:53 10° SSE 17:54:00 65° ENE 17:57:09 10° N
Cosmos 2237 Rocket 3.6 17:49:12 10° SW 17:54:25 39° WNW 17:59:41 10° N
Cosmos 1707 Rocket 4.3 17:52:03 10° NNE 17:55:55 31° E 17:59:47 10° SE
OTV 4 2.4 17:53:35 10° W 17:56:13 28° SSW 17:58:50 10° SSE
Cosmos 1300 3.3 17:54:07 10° NNW 17:57:55 62° W 18:01:41 10° S
COSMO-SKYMED 1 2.5 17:53:56 10° NNE 17:58:18 77° ESE 18:02:37 10° S
Cosmos 1666 Rocket 3.8 17:58:04 10° SSE 18:02:12 45° E 18:06:22 10° NNE
H-2A ROCKET BODY 4.3 17:18:36 10° WSW 18:02:41 68° S 18:09:18 10° E
SL-16 R/B 2.3 17:57:07 10° SSW 18:02:45 84° WNW 18:08:26 10° NNE
SPOT 3 Rocket 4.3 17:58:22 10° S 18:03:24 57° WSW 18:08:30 10° NNW
Cosmos 1538 Rocket 4.0 17:58:33 10° S 18:03:48 76° ESE 18:09:09 10° NNE
Haruka 3.5 18:02:21 10° WSW 18:06:04 73° S 18:16:07 11° E
FREGAT/IRIS 4.2 18:04:08 10° ESE 18:06:07 16° ENE 18:08:07 10° NNE
Meteor 1-27 4.3 18:00:24 10° N 18:06:16 87° E 18:12:06 10° S
Meteor 2-10 4.1 18:03:49 10° N 18:08:59 87° W 18:14:19 10° S
Cosmos 1484 Rocket 3.0 18:06:49 10° S 18:10:43 78° W 18:14:43 10° NNW
Resurs 01 Rocket 3.2 18:12:15 15° ENE 18:12:50 15° ENE 18:15:24 10° NNE
Cosmos 1340 Rocket 3.8 18:09:24 10° SSW 18:13:13 49° W 18:17:02 10° N
BREEZE-M DEB (TANK) 3.4 18:08:29 10° NW 18:13:38 47° SW 18:16:20 10° SSE
Cosmos 1680 Rocket 4.3 18:13:39 10° SSE 18:18:10 31° E 18:22:05 13° NE
Cosmos 2297 3.7 18:14:27 10° NNW 18:20:11 74° ENE 18:25:54 10° SSE
Meteor 1-28 Rocket 3.3 18:18:37 10° N 18:22:20 75° WNW 18:26:02 10° SSW
Lacrosse 4 Rocket 2.5 18:21:50 10° N 18:25:02 22° ENE 18:25:16 22° ENE
Tiangong 1 0.8 18:24:34 10° SW 18:27:32 74° SSE 18:28:39 34° ENE
FENGYUN 3A 4.4 18:24:34 10° SE 18:29:04 28° ENE 18:33:36 10° NNE
METEOR-M 4.2 18:24:00 10° SSE 18:29:13 57° ENE 18:34:28 10° N
NOSS 3-1 (C) 4.1 18:25:37 10° S 18:30:26 29° ESE 18:32:51 22° ENE
Intelsat 5-1 Rocket 3.8 18:29:06 10° SSW 18:30:47 15° S 18:33:03 10° SE
Cosmos 1869 3.8 18:28:32 10° NNE 18:32:18 37° E 18:36:02 10° SSE
Milstar 3 4.0 18:29:00 10° W 18:35:06 35° SSW 18:41:32 10° SE
Cosmos 1470 Rocket 3.9 18:31:10 10° SSE 18:35:16 41° E 18:38:13 17° NNE
NOAA 12 4.0 18:32:32 10° SSE 18:37:45 76° ENE 18:43:00 10° N
Cosmos 773 Rocket 4.1 18:33:16 10° SSW 18:38:24 77° WNW 18:43:37 10° NNE
Cosmos 1943 4.0 18:36:00 10° SSE 18:40:49 29° ESE 18:41:55 27° E
USA 215 3.8 18:40:52 24° E 18:43:54 36° NE 18:49:45 10° NNW
Nadezhda 4 Rocket 4.2 18:39:27 10° SSW 18:45:41 74° W 18:52:00 10° N
Cosmos 1626 3.9 18:43:40 10° SSW 18:47:05 34° W 18:50:31 10° NNW
Cosmos 2242 Rocket 3.5 18:43:06 10° N 18:47:30 64° E 18:51:55 10° SSE
Cosmos 2026 Rocket 4.2 18:43:39 10° SSE 18:49:30 44° E 18:55:17 10° NNE
ATLAS 2A CENTAUR R/B 3.5 18:49:42 10° S 18:51:16 15° SE 18:51:16 15° SE
Sich 1 4.3 18:49:02 10° SSW 18:53:15 43° W 18:57:30 10° N
Cosmos 2112 Rocket 3.9 18:49:27 10° S 18:54:33 61° ESE 18:57:12 28° NNE
Aureole 1 Rocket 4.4 18:52:37 10° SSW 18:57:41 59° WNW 19:04:27 10° N
Lacrosse 5 rocket 3.7 18:56:38 10° WNW 18:59:44 22° WSW 19:02:57 10° S
ALOS 2.2 18:55:31 10° SSE 19:00:05 58° ENE 19:04:40 10° N
Coronas F rocket 3.8 19:01:17 10° SW 19:03:04 19° W 19:03:53 16° NW
Meteor 2-20 4.4 18:59:21 10° SSE 19:05:16 56° E 19:09:18 21° NNE
Cosmos 1603 4.0 19:02:01 10° SSW 19:07:35 66° WNW 19:12:04 16° NNE
Cosmos 1092 Rocket 4.3 19:01:50 10° SSW 19:08:06 68° W 19:14:27 10° N
FengYun 1-2 T 4.1 19:04:11 10° SSE 19:09:44 76° ENE 19:15:15 10° N
Delta 2 Rocket 3.8 19:07:18 10° WSW 19:09:44 40° SSW 19:09:44 40° SSW
Cosmos 292 Rocket 4.2 19:06:23 10° SSW 19:11:04 59° WNW 19:14:08 21° N
Cosmos 1455 4.1 19:10:09 10° NNW 19:13:32 31° W 19:16:55 10° SSW
SJ-6B 4.4 19:18:11 10° SSW 19:21:56 36° W 19:25:46 10° NNW
Spot 2 Rocket 3.4 19:21:44 10° SSE 19:26:47 83° WSW 19:31:51 10° NNW
NOSS 3-1 (A) 3.3 19:37:18 10° SSW 19:42:21 72° SSW 19:42:21 72° SSW
Meteor 2-20 Rocket 4.4 19:40:16 10° S 19:46:22 84° W 19:46:24 83° WNW
Cosmos 2369 Rocket 4.1 19:41:26 10° NNW 19:42:51 18° N 19:42:51 18° N
Resurs 01 Rocket 3.0 19:44:46 10° S 19:49:46 36° WNW 19:53:07 10° NNW
Lacrosse 4 Rocket 4.0 20:00:23 10° NW 20:01:46 17° WNW 20:01:46 17° WNW
USA 215 4.0 20:28:15 47° W 20:28:15 47° W 20:33:04 10° NW
